iso_date,epoch_date,Year,Hour,Min,DOY,POS_DOY,Lat,Lon,BP,Ts,Ta,has_bp,has_ts,has_ta,BuoyID,Buoy_Type,Buoy_Owner,Logistics,Hemisphere
2012-04-12T00:00:00Z,1334188800,2012,0,0,103.0,103.0,72.376,-127.474,1030.3,-12.9,-999.0,yes,yes,no,300234010132070,BD2GI,AOML,POLAR_STAR,North
2012-04-12T01:00:28Z,1334192429,2012,1,0,103.042,103.0,72.376,-127.474,1029.9,-13.2,-999.0,yes,yes,no,300234010132070,BD2GI,AOML,POLAR_STAR,North
2012-04-12T01:59:31Z,1334195971,2012,2,0,103.083,103.0,72.376,-127.474,1028.9,-14.4,-999.0,yes,yes,no,300234010132070,BD2GI,AOML,POLAR_STAR,North
2012-04-12T03:00:00Z,1334199600,2012,3,0,103.125,103.125,72.376,-127.474,1028.8,-16.2,-999.0,yes,yes,no,300234010132070,BD2GI,AOML,POLAR_STAR,North
2012-04-12T04:00:28Z,1334203229,2012,4,0,103.167,103.125,72.376,-127.474,1028.1,-18.8,-999.0,yes,yes,no,300234010132070,BD2GI,AOML,POLAR_STAR,North
2012-04-12T04:59:31Z,1334206771,2012,5,0,103.208,103.125,72.376,-127.474,1028.5,-21.3,-999.0,yes,yes,no,300234010132070,BD2GI,AOML,POLAR_STAR,North
2012-04-12T06:00:00Z,1334210400,2012,6,0,103.25,103.25,72.376,-127.4738,1029.4,-22.9,-999.0,yes,yes,no,300234010132070,BD2GI,AOML,POLAR_STAR,North
2012-04-12T07:00:28Z,1334214029,2012,7,0,103.292,103.25,72.376,-127.4738,1030.2,-24.0,-999.0,yes,yes,no,300234010132070,BD2GI,AOML,POLAR_STAR,North
2012-04-12T07:59:31Z,1334217571,2012,8,0,103.333,103.25,72.376,-127.4738,1031.0,-24.1,-999.0,yes,yes,no,300234010132070,BD2GI,AOML,POLAR_STAR,North
2012-04-12T09:00:00Z,1334221200,2012,9,0,103.375,103.375,72.376,-127.474,1030.8,-24.5,-999.0,yes,yes,no,300234010132070,BD2GI,AOML,POLAR_STAR,North
2012-04-12T10:00:28Z,1334224829,2012,10,0,103.417,103.375,72.376,-127.474,1031.0,-24.9,-999.0,yes,yes,no,300234010132070,BD2GI,AOML,POLAR_STAR,North
2012-04-12T10:59:31Z,1334228371,2012,11,0,103.458,103.375,72.376,-127.474,1031.2,-25.0,-999.0,yes,yes,no,300234010132070,BD2GI,AOML,POLAR_STAR,North
2012-04-12T12:00:00Z,1334232000,2012,12,0,103.5,103.5,72.376,-127.474,1031.2,-25.3,-999.0,yes,yes,no,300234010132070,BD2GI,AOML,POLAR_STAR,North
2012-04-12T13:00:28Z,1334235629,2012,13,0,103.542,103.5,72.376,-127.474,1031.8,-25.1,-999.0,yes,yes,no,300234010132070,BD2GI,AOML,POLAR_STAR,North
2012-04-12T13:59:31Z,1334239171,2012,14,0,103.583,103.5,72.376,-127.474,1032.9,-24.2,-999.0,yes,yes,no,300234010132070,BD2GI,AOML,POLAR_STAR,North
2012-04-12T15:00:00Z,1334242800,2012,15,0,103.625,103.625,72.376,-127.4738,1033.1,-22.5,-999.0,yes,yes,no,300234010132070,BD2GI,AOML,POLAR_STAR,North
2012-04-12T16:00:28Z,1334246429,2012,16,0,103.667,103.625,72.376,-127.4738,1033.0,-20.9,-999.0,yes,yes,no,300234010132070,BD2GI,AOML,POLAR_STAR,North
2012-04-12T16:59:31Z,1334249971,2012,17,0,103.708,103.625,72.376,-127.4738,1033.3,-19.2,-999.0,yes,yes,no,300234010132070,BD2GI,AOML,POLAR_STAR,North
2012-04-12T18:00:00Z,1334253600,2012,18,0,103.75,103.75,72.376,-127.474,1033.2,-17.6,-999.0,yes,yes,no,300234010132070,BD2GI,AOML,POLAR_STAR,North
2012-04-12T19:00:28Z,1334257229,2012,19,0,103.792,103.75,72.376,-127.474,1033.1,-16.0,-999.0,yes,yes,no,300234010132070,BD2GI,AOML,POLAR_STAR,North
2012-04-12T19:59:31Z,1334260771,2012,20,0,103.833,103.75,72.376,-127.474,1033.2,-14.8,-999.0,yes,yes,no,300234010132070,BD2GI,AOML,POLAR_STAR,North
2012-04-12T21:00:00Z,1334264400,2012,21,0,103.875,103.875,72.376,-127.474,1033.1,-13.8,-999.0,yes,yes,no,300234010132070,BD2GI,AOML,POLAR_STAR,North
2012-04-12T22:00:28Z,1334268029,2012,22,0,103.917,103.875,72.376,-127.474,1033.1,-13.1,-999.0,yes,yes,no,300234010132070,BD2GI,AOML,POLAR_STAR,North
2012-04-12T22:59:31Z,1334271571,2012,23,0,103.958,103.875,72.376,-127.474,1033.0,-12.8,-999.0,yes,yes,no,300234010132070,BD2GI,AOML,POLAR_STAR,North
2012-04-13T00:00:00Z,1334275200,2012,0,0,104.0,104.0,72.376,-127.474,1032.9,-12.8,-999.0,yes,yes,no,300234010132070,BD2GI,AOML,POLAR_STAR,North
2012-04-13T01:00:28Z,1334278829,2012,1,0,104.042,104.0,72.376,-127.474,1032.9,-13.0,-999.0,yes,yes,no,300234010132070,BD2GI,AOML,POLAR_STAR,North
2012-04-13T01:59:31Z,1334282371,2012,2,0,104.083,104.0,72.376,-127.474,1032.3,-13.9,-999.0,yes,yes,no,300234010132070,BD2GI,AOML,POLAR_STAR,North
2012-04-13T03:00:00Z,1334286000,2012,3,0,104.125,104.125,72.376,-127.474,1032.4,-15.2,-999.0,yes,yes,no,300234010132070,BD2GI,AOML,POLAR_STAR,North
2012-04-13T04:00:28Z,1334289629,2012,4,0,104.167,104.125,72.376,-127.474,1032.0,-17.1,-999.0,yes,yes,no,300234010132070,BD2GI,AOML,POLAR_STAR,North
2012-04-13T04:59:31Z,1334293171,2012,5,0,104.208,104.125,72.376,-127.474,1032.0,-19.3,-999.0,yes,yes,no,300234010132070,BD2GI,AOML,POLAR_STAR,North
2012-04-13T06:00:00Z,1334296800,2012,6,0,104.25,104.25,72.376,-127.474,1032.9,-20.9,-999.0,yes,yes,no,300234010132070,BD2GI,AOML,POLAR_STAR,North
2012-04-13T07:00:28Z,1334300429,2012,7,0,104.292,104.25,72.376,-127.474,1033.4,-22.2,-999.0,yes,yes,no,300234010132070,BD2GI,AOML,POLAR_STAR,North
2012-04-13T07:59:31Z,1334303971,2012,8,0,104.333,104.25,72.376,-127.474,1033.9,-23.0,-999.0,yes,yes,no,300234010132070,BD2GI,AOML,POLAR_STAR,North
2012-04-13T09:00:00Z,1334307600,2012,9,0,104.375,104.375,72.376,-127.474,1034.5,-23.8,-999.0,yes,yes,no,300234010132070,BD2GI,AOML,POLAR_STAR,North
2012-04-13T10:00:28Z,1334311229,2012,10,0,104.417,104.375,72.376,-127.474,1035.3,-23.9,-999.0,yes,yes,no,300234010132070,BD2GI,AOML,POLAR_STAR,North
2012-04-13T10:59:31Z,1334314771,2012,11,0,104.458,104.375,72.376,-127.474,1035.2,-24.3,-999.0,yes,yes,no,300234010132070,BD2GI,AOML,POLAR_STAR,North
2012-04-13T12:00:00Z,1334318400,2012,12,0,104.5,104.5,72.376,-127.4738,1035.7,-24.8,-999.0,yes,yes,no,300234010132070,BD2GI,AOML,POLAR_STAR,North
2012-04-13T13:00:28Z,1334322029,2012,13,0,104.542,104.5,72.376,-127.4738,1036.4,-24.5,-999.0,yes,yes,no,300234010132070,BD2GI,AOML,POLAR_STAR,North
2012-04-13T13:59:31Z,1334325571,2012,14,0,104.583,104.5,72.376,-127.4738,1037.3,-23.0,-999.0,yes,yes,no,300234010132070,BD2GI,AOML,POLAR_STAR,North
2012-04-13T15:00:00Z,1334329200,2012,15,0,104.625,104.625,72.376,-127.4738,1037.5,-21.0,-999.0,yes,yes,no,300234010132070,BD2GI,AOML,POLAR_STAR,North
2012-04-13T16:00:28Z,1334332829,2012,16,0,104.667,104.625,72.376,-127.4738,1037.5,-18.9,-999.0,yes,yes,no,300234010132070,BD2GI,AOML,POLAR_STAR,North
2012-04-13T16:59:31Z,1334336371,2012,17,0,104.708,104.625,72.376,-127.4738,1037.2,-17.5,-999.0,yes,yes,no,300234010132070,BD2GI,AOML,POLAR_STAR,North
2012-04-13T18:00:00Z,1334340000,2012,18,0,104.75,104.75,72.376,-127.474,1037.4,-16.2,-999.0,yes,yes,no,300234010132070,BD2GI,AOML,POLAR_STAR,North
2012-04-13T19:00:28Z,1334343629,2012,19,0,104.792,104.75,72.376,-127.474,1037.7,-15.1,-999.0,yes,yes,no,300234010132070,BD2GI,AOML,POLAR_STAR,North
2012-04-13T19:59:31Z,1334347171,2012,20,0,104.833,104.75,72.376,-127.474,1038.6,-13.7,-999.0,yes,yes,no,300234010132070,BD2GI,AOML,POLAR_STAR,North
2012-04-13T21:00:00Z,1334350800,2012,21,0,104.875,104.875,72.376,-127.474,1038.5,-12.6,-999.0,yes,yes,no,300234010132070,BD2GI,AOML,POLAR_STAR,North
2012-04-13T22:00:28Z,1334354429,2012,22,0,104.917,104.875,72.376,-127.474,1038.0,-12.5,-999.0,yes,yes,no,300234010132070,BD2GI,AOML,POLAR_STAR,North
2012-04-13T22:59:31Z,1334357971,2012,23,0,104.958,104.875,72.376,-127.474,1038.0,-12.7,-999.0,yes,yes,no,300234010132070,BD2GI,AOML,POLAR_STAR,North
2012-04-14T00:00:00Z,1334361600,2012,0,0,105.0,105.0,72.376,-127.4738,1038.2,-12.6,-999.0,yes,yes,no,300234010132070,BD2GI,AOML,POLAR_STAR,North
2012-04-14T01:00:28Z,1334365229,2012,1,0,105.042,105.0,72.376,-127.4738,1038.1,-13.1,-999.0,yes,yes,no,300234010132070,BD2GI,AOML,POLAR_STAR,North
2012-04-14T01:59:31Z,1334368771,2012,2,0,105.083,105.0,72.376,-127.4738,1037.9,-13.9,-999.0,yes,yes,no,300234010132070,BD2GI,AOML,POLAR_STAR,North
2012-04-14T03:00:00Z,1334372400,2012,3,0,105.125,105.125,72.376,-127.474,1037.9,-15.1,-999.0,yes,yes,no,300234010132070,BD2GI,AOML,POLAR_STAR,North
2012-04-14T04:00:28Z,1334376029,2012,4,0,105.167,105.125,72.376,-127.474,1037.6,-16.9,-999.0,yes,yes,no,300234010132070,BD2GI,AOML,POLAR_STAR,North
2012-04-14T04:59:31Z,1334379571,2012,5,0,105.208,105.125,72.376,-127.474,1037.3,-19.2,-999.0,yes,yes,no,300234010132070,BD2GI,AOML,POLAR_STAR,North
2012-04-14T06:00:00Z,1334383200,2012,6,0,105.25,105.25,72.376,-127.474,1038.2,-21.1,-999.0,yes,yes,no,300234010132070,BD2GI,AOML,POLAR_STAR,North
2012-04-14T07:00:28Z,1334386829,2012,7,0,105.292,105.25,72.376,-127.474,1039.1,-22.2,-999.0,yes,yes,no,300234010132070,BD2GI,AOML,POLAR_STAR,North
2012-04-14T07:59:31Z,1334390371,2012,8,0,105.333,105.25,72.376,-127.474,1039.2,-23.2,-999.0,yes,yes,no,300234010132070,BD2GI,AOML,POLAR_STAR,North
2012-04-14T09:00:00Z,1334394000,2012,9,0,105.375,105.375,72.376,-127.474,1039.4,-24.2,-999.0,yes,yes,no,300234010132070,BD2GI,AOML,POLAR_STAR,North
2012-04-14T10:00:28Z,1334397629,2012,10,0,105.417,105.375,72.376,-127.474,1039.6,-24.5,-999.0,yes,yes,no,300234010132070,BD2GI,AOML,POLAR_STAR,North
2012-04-14T10:59:31Z,1334401171,2012,11,0,105.458,105.375,72.376,-127.474,1039.7,-24.9,-999.0,yes,yes,no,300234010132070,BD2GI,AOML,POLAR_STAR,North
2012-04-14T12:00:00Z,1334404800,2012,12,0,105.5,105.5,72.376,-127.474,1039.9,-24.8,-999.0,yes,yes,no,300234010132070,BD2GI,AOML,POLAR_STAR,North
2012-04-14T13:00:28Z,1334408429,2012,13,0,105.542,105.5,72.376,-127.474,1039.5,-24.5,-999.0,yes,yes,no,300234010132070,BD2GI,AOML,POLAR_STAR,North
2012-04-14T13:59:31Z,1334411971,2012,14,0,105.583,105.5,72.376,-127.474,1040.6,-23.2,-999.0,yes,yes,no,300234010132070,BD2GI,AOML,POLAR_STAR,North
2012-04-14T15:00:00Z,1334415600,2012,15,0,105.625,105.625,72.376,-127.474,1040.4,-21.4,-999.0,yes,yes,no,300234010132070,BD2GI,AOML,POLAR_STAR,North
2012-04-14T16:00:28Z,1334419229,2012,16,0,105.667,105.625,72.376,-127.474,1040.0,-19.5,-999.0,yes,yes,no,300234010132070,BD2GI,AOML,POLAR_STAR,North
2012-04-14T16:59:31Z,1334422771,2012,17,0,105.708,105.625,72.376,-127.474,1039.6,-17.9,-999.0,yes,yes,no,300234010132070,BD2GI,AOML,POLAR_STAR,North
2012-04-14T18:00:00Z,1334426400,2012,18,0,105.75,105.75,72.376,-127.474,1039.3,-16.2,-999.0,yes,yes,no,300234010132070,BD2GI,AOML,POLAR_STAR,North
2012-04-14T19:00:28Z,1334430029,2012,19,0,105.792,105.75,72.376,-127.474,1039.0,-14.6,-999.0,yes,yes,no,300234010132070,BD2GI,AOML,POLAR_STAR,North
2012-04-14T19:59:31Z,1334433571,2012,20,0,105.833,105.75,72.376,-127.474,1038.6,-13.6,-999.0,yes,yes,no,300234010132070,BD2GI,AOML,POLAR_STAR,North
2012-04-14T21:00:00Z,1334437200,2012,21,0,105.875,105.875,72.376,-127.4742,1038.1,-13.0,-999.0,yes,yes,no,300234010132070,BD2GI,AOML,POLAR_STAR,North
2012-04-14T22:00:28Z,1334440829,2012,22,0,105.917,105.875,72.376,-127.4742,1038.0,-12.5,-999.0,yes,yes,no,300234010132070,BD2GI,AOML,POLAR_STAR,North
2012-04-14T22:59:31Z,1334444371,2012,23,0,105.958,105.875,72.376,-127.4742,1037.1,-12.5,-999.0,yes,yes,no,300234010132070,BD2GI,AOML,POLAR_STAR,North
2012-04-15T00:00:00Z,1334448000,2012,0,0,106.0,106.0,72.376,-127.4748,1036.6,-12.5,-999.0,yes,yes,no,300234010132070,BD2GI,AOML,POLAR_STAR,North
2012-04-15T01:00:28Z,1334451629,2012,1,0,106.042,106.0,72.376,-127.4748,1036.3,-12.6,-999.0,yes,yes,no,300234010132070,BD2GI,AOML,POLAR_STAR,North
2012-04-15T01:59:31Z,1334455171,2012,2,0,106.083,106.0,72.376,-127.4748,1035.1,-13.1,-999.0,yes,yes,no,300234010132070,BD2GI,AOML,POLAR_STAR,North
2012-04-15T03:00:00Z,1334458800,2012,3,0,106.125,106.125,72.3762,-127.475,1034.5,-14.2,-999.0,yes,yes,no,300234010132070,BD2GI,AOML,POLAR_STAR,North
2012-04-15T04:00:28Z,1334462429,2012,4,0,106.167,106.125,72.3762,-127.475,1033.5,-16.1,-999.0,yes,yes,no,300234010132070,BD2GI,AOML,POLAR_STAR,North
2012-04-15T04:59:31Z,1334465971,2012,5,0,106.208,106.125,72.3762,-127.475,1033.2,-18.1,-999.0,yes,yes,no,300234010132070,BD2GI,AOML,POLAR_STAR,North
2012-04-15T06:00:00Z,1334469600,2012,6,0,106.25,106.25,72.376,-127.475,1033.4,-19.4,-999.0,yes,yes,no,300234010132070,BD2GI,AOML,POLAR_STAR,North
2012-04-15T07:00:28Z,1334473229,2012,7,0,106.292,106.25,72.376,-127.475,1033.8,-20.2,-999.0,yes,yes,no,300234010132070,BD2GI,AOML,POLAR_STAR,North
2012-04-15T07:59:31Z,1334476771,2012,8,0,106.333,106.25,72.376,-127.475,1033.7,-20.9,-999.0,yes,yes,no,300234010132070,BD2GI,AOML,POLAR_STAR,North
2012-04-15T09:00:00Z,1334480400,2012,9,0,106.375,106.375,72.376,-127.4742,1033.2,-21.5,-999.0,yes,yes,no,300234010132070,BD2GI,AOML,POLAR_STAR,North
2012-04-15T10:00:28Z,1334484029,2012,10,0,106.417,106.375,72.376,-127.4742,1033.0,-22.2,-999.0,yes,yes,no,300234010132070,BD2GI,AOML,POLAR_STAR,North
2012-04-15T10:59:31Z,1334487571,2012,11,0,106.458,106.375,72.376,-127.4742,1032.8,-22.6,-999.0,yes,yes,no,300234010132070,BD2GI,AOML,POLAR_STAR,North
2012-04-15T12:00:00Z,1334491200,2012,12,0,106.5,106.5,72.376,-127.4744,1032.8,-23.0,-999.0,yes,yes,no,300234010132070,BD2GI,AOML,POLAR_STAR,North
2012-04-15T13:00:28Z,1334494829,2012,13,0,106.542,106.5,72.376,-127.4744,1033.4,-22.3,-999.0,yes,yes,no,300234010132070,BD2GI,AOML,POLAR_STAR,North
2012-04-15T13:59:31Z,1334498371,2012,14,0,106.583,106.5,72.376,-127.4744,1033.5,-20.7,-999.0,yes,yes,no,300234010132070,BD2GI,AOML,POLAR_STAR,North
2012-04-15T15:00:00Z,1334502000,2012,15,0,106.625,106.625,72.376,-127.4744,1033.3,-18.7,-999.0,yes,yes,no,300234010132070,BD2GI,AOML,POLAR_STAR,North
2012-04-15T16:00:28Z,1334505629,2012,16,0,106.667,106.625,72.376,-127.4744,1032.7,-16.8,-999.0,yes,yes,no,300234010132070,BD2GI,AOML,POLAR_STAR,North
2012-04-15T16:59:31Z,1334509171,2012,17,0,106.708,106.625,72.376,-127.4744,1032.6,-14.9,-999.0,yes,yes,no,300234010132070,BD2GI,AOML,POLAR_STAR,North
2012-04-15T18:00:00Z,1334512800,2012,18,0,106.75,106.75,72.3764,-127.4758,1032.1,-13.2,-999.0,yes,yes,no,300234010132070,BD2GI,AOML,POLAR_STAR,North
2012-04-15T19:00:28Z,1334516429,2012,19,0,106.792,106.75,72.3764,-127.4758,1031.4,-12.0,-999.0,yes,yes,no,300234010132070,BD2GI,AOML,POLAR_STAR,North
2012-04-15T19:59:31Z,1334519971,2012,20,0,106.833,106.75,72.3764,-127.4758,1031.2,-11.0,-999.0,yes,yes,no,300234010132070,BD2GI,AOML,POLAR_STAR,North
2012-04-15T21:00:00Z,1334523600,2012,21,0,106.875,106.875,72.3778,-127.4804,1031.2,-9.7,-999.0,yes,yes,no,300234010132070,BD2GI,AOML,POLAR_STAR,North
2012-04-15T22:00:28Z,1334527229,2012,22,0,106.917,106.875,72.3778,-127.4804,1030.8,-8.8,-999.0,yes,yes,no,300234010132070,BD2GI,AOML,POLAR_STAR,North
2012-04-15T22:59:31Z,1334530771,2012,23,0,106.958,106.875,72.3778,-127.4804,1030.0,-8.8,-999.0,yes,yes,no,300234010132070,BD2GI,AOML,POLAR_STAR,North
2012-04-16T00:00:00Z,1334534400,2012,0,0,107.0,107.0,72.3798,-127.4874,1029.6,-8.9,-999.0,yes,yes,no,300234010132070,BD2GI,AOML,POLAR_STAR,North
2012-04-16T01:00:28Z,1334538029,2012,1,0,107.042,107.0,72.3798,-127.4874,1028.7,-9.3,-999.0,yes,yes,no,300234010132070,BD2GI,AOML,POLAR_STAR,North
2012-04-16T01:59:31Z,1334541571,2012,2,0,107.083,107.0,72.3798,-127.4874,1027.9,-10.1,-999.0,yes,yes,no,300234010132070,BD2GI,AOML,POLAR_STAR,North
2012-04-16T03:00:00Z,1334545200,2012,3,0,107.125,107.125,72.3818,-127.4986,1027.6,-11.2,-999.0,yes,yes,no,300234010132070,BD2GI,AOML,POLAR_STAR,North
2012-04-16T04:00:28Z,1334548829,2012,4,0,107.167,107.125,72.3818,-127.4986,1027.0,-13.4,-999.0,yes,yes,no,300234010132070,BD2GI,AOML,POLAR_STAR,North
2012-04-16T04:59:31Z,1334552371,2012,5,0,107.208,107.125,72.3818,-127.4986,1026.1,-16.2,-999.0,yes,yes,no,300234010132070,BD2GI,AOML,POLAR_STAR,North
2012-04-16T06:00:00Z,1334556000,2012,6,0,107.25,107.25,72.3828,-127.502,1027.2,-17.3,-999.0,yes,yes,no,300234010132070,BD2GI,AOML,POLAR_STAR,North
2012-04-16T07:00:28Z,1334559629,2012,7,0,107.292,107.25,72.3828,-127.502,1027.0,-18.2,-999.0,yes,yes,no,300234010132070,BD2GI,AOML,POLAR_STAR,North
2012-04-16T07:59:31Z,1334563171,2012,8,0,107.333,107.25,72.3828,-127.502,1026.7,-19.3,-999.0,yes,yes,no,300234010132070,BD2GI,AOML,POLAR_STAR,North
2012-04-16T09:00:00Z,1334566800,2012,9,0,107.375,107.375,72.3838,-127.506,1027.4,-19.0,-999.0,yes,yes,no,300234010132070,BD2GI,AOML,POLAR_STAR,North
2012-04-16T10:00:28Z,1334570429,2012,10,0,107.417,107.375,72.3838,-127.506,1026.5,-18.2,-999.0,yes,yes,no,300234010132070,BD2GI,AOML,POLAR_STAR,North
2012-04-16T10:59:31Z,1334573971,2012,11,0,107.458,107.375,72.3838,-127.506,1026.5,-17.7,-999.0,yes,yes,no,300234010132070,BD2GI,AOML,POLAR_STAR,North
2012-04-16T12:00:00Z,1334577600,2012,12,0,107.5,107.5,72.3864,-127.5044,1026.0,-17.4,-999.0,yes,yes,no,300234010132070,BD2GI,AOML,POLAR_STAR,North
2012-04-16T13:00:28Z,1334581229,2012,13,0,107.542,107.5,72.3864,-127.5044,1025.6,-17.7,-999.0,yes,yes,no,300234010132070,BD2GI,AOML,POLAR_STAR,North
2012-04-16T13:59:31Z,1334584771,2012,14,0,107.583,107.5,72.3864,-127.5044,1026.5,-16.6,-999.0,yes,yes,no,300234010132070,BD2GI,AOML,POLAR_STAR,North
2012-04-16T15:00:00Z,1334588400,2012,15,0,107.625,107.625,72.387,-127.5064,1026.2,-14.9,-999.0,yes,yes,no,300234010132070,BD2GI,AOML,POLAR_STAR,North
2012-04-16T16:00:28Z,1334592029,2012,16,0,107.667,107.625,72.387,-127.5064,1025.0,-13.5,-999.0,yes,yes,no,300234010132070,BD2GI,AOML,POLAR_STAR,North
2012-04-16T16:59:31Z,1334595571,2012,17,0,107.708,107.625,72.387,-127.5064,1024.7,-12.1,-999.0,yes,yes,no,300234010132070,BD2GI,AOML,POLAR_STAR,North
2012-04-16T18:00:00Z,1334599200,2012,18,0,107.75,107.75,72.3902,-127.5234,1024.6,-10.9,-999.0,yes,yes,no,300234010132070,BD2GI,AOML,POLAR_STAR,North
2012-04-16T19:00:28Z,1334602829,2012,19,0,107.792,107.75,72.3902,-127.5234,1024.1,-10.0,-999.0,yes,yes,no,300234010132070,BD2GI,AOML,POLAR_STAR,North
2012-04-16T19:59:31Z,1334606371,2012,20,0,107.833,107.75,72.3902,-127.5234,1023.7,-9.2,-999.0,yes,yes,no,300234010132070,BD2GI,AOML,POLAR_STAR,North
2012-04-16T21:00:00Z,1334610000,2012,21,0,107.875,107.875,72.3956,-127.5354,1023.1,-8.6,-999.0,yes,yes,no,300234010132070,BD2GI,AOML,POLAR_STAR,North
2012-04-16T22:00:28Z,1334613629,2012,22,0,107.917,107.875,72.3956,-127.5354,1022.6,-8.1,-999.0,yes,yes,no,300234010132070,BD2GI,AOML,POLAR_STAR,North
2012-04-16T22:59:31Z,1334617171,2012,23,0,107.958,107.875,72.3956,-127.5354,1021.9,-7.8,-999.0,yes,yes,no,300234010132070,BD2GI,AOML,POLAR_STAR,North
2012-04-17T00:00:00Z,1334620800,2012,0,0,108.0,108.0,72.4014,-127.534,1021.4,-7.8,-999.0,yes,yes,no,300234010132070,BD2GI,AOML,POLAR_STAR,North
2012-04-17T01:00:28Z,1334624429,2012,1,0,108.042,108.0,72.4014,-127.534,1020.8,-8.2,-999.0,yes,yes,no,300234010132070,BD2GI,AOML,POLAR_STAR,North
2012-04-17T01:59:31Z,1334627971,2012,2,0,108.083,108.0,72.4014,-127.534,1020.2,-8.8,-999.0,yes,yes,no,300234010132070,BD2GI,AOML,POLAR_STAR,North
2012-04-17T03:00:00Z,1334631600,2012,3,0,108.125,108.125,72.4048,-127.5372,1019.6,-9.9,-999.0,yes,yes,no,300234010132070,BD2GI,AOML,POLAR_STAR,North
2012-04-17T04:00:28Z,1334635229,2012,4,0,108.167,108.125,72.4048,-127.5372,1018.8,-11.7,-999.0,yes,yes,no,300234010132070,BD2GI,AOML,POLAR_STAR,North
2012-04-17T04:59:31Z,1334638771,2012,5,0,108.208,108.125,72.4048,-127.5372,1018.5,-13.5,-999.0,yes,yes,no,300234010132070,BD2GI,AOML,POLAR_STAR,North
2012-04-17T06:00:00Z,1334642400,2012,6,0,108.25,108.25,72.4054,-127.5444,1018.7,-14.7,-999.0,yes,yes,no,300234010132070,BD2GI,AOML,POLAR_STAR,North
2012-04-17T07:00:28Z,1334646029,2012,7,0,108.292,108.25,72.4054,-127.5444,1018.9,-15.8,-999.0,yes,yes,no,300234010132070,BD2GI,AOML,POLAR_STAR,North
2012-04-17T07:59:31Z,1334649571,2012,8,0,108.333,108.25,72.4054,-127.5444,1018.6,-17.3,-999.0,yes,yes,no,300234010132070,BD2GI,AOML,POLAR_STAR,North
2012-04-17T09:00:00Z,1334653200,2012,9,0,108.375,108.375,72.4058,-127.5486,1019.5,-18.0,-999.0,yes,yes,no,300234010132070,BD2GI,AOML,POLAR_STAR,North
2012-04-17T10:00:28Z,1334656829,2012,10,0,108.417,108.375,72.4058,-127.5486,1019.4,-17.9,-999.0,yes,yes,no,300234010132070,BD2GI,AOML,POLAR_STAR,North
2012-04-17T10:59:31Z,1334660371,2012,11,0,108.458,108.375,72.4058,-127.5486,1019.4,-17.7,-999.0,yes,yes,no,300234010132070,BD2GI,AOML,POLAR_STAR,North
2012-04-17T12:00:00Z,1334664000,2012,12,0,108.5,108.5,72.4058,-127.5484,1019.1,-17.5,-999.0,yes,yes,no,300234010132070,BD2GI,AOML,POLAR_STAR,North
2012-04-17T13:00:28Z,1334667629,2012,13,0,108.542,108.5,72.4058,-127.5484,1019.0,-17.2,-999.0,yes,yes,no,300234010132070,BD2GI,AOML,POLAR_STAR,North
2012-04-17T13:59:31Z,1334671171,2012,14,0,108.583,108.5,72.4058,-127.5484,1019.1,-16.5,-999.0,yes,yes,no,300234010132070,BD2GI,AOML,POLAR_STAR,North
2012-04-17T15:00:00Z,1334674800,2012,15,0,108.625,108.625,72.4054,-127.5488,1019.6,-15.0,-999.0,yes,yes,no,300234010132070,BD2GI,AOML,POLAR_STAR,North
2012-04-17T16:00:28Z,1334678429,2012,16,0,108.667,108.625,72.4054,-127.5488,1019.6,-13.3,-999.0,yes,yes,no,300234010132070,BD2GI,AOML,POLAR_STAR,North
2012-04-17T16:59:31Z,1334681971,2012,17,0,108.708,108.625,72.4054,-127.5488,1019.6,-11.4,-999.0,yes,yes,no,300234010132070,BD2GI,AOML,POLAR_STAR,North
2012-04-17T18:00:00Z,1334685600,2012,18,0,108.75,108.75,72.4042,-127.549,1019.2,-10.2,-999.0,yes,yes,no,300234010132070,BD2GI,AOML,POLAR_STAR,North
2012-04-17T19:00:28Z,1334689229,2012,19,0,108.792,108.75,72.4042,-127.549,1019.0,-9.2,-999.0,yes,yes,no,300234010132070,BD2GI,AOML,POLAR_STAR,North
2012-04-17T19:59:31Z,1334692771,2012,20,0,108.833,108.75,72.4042,-127.549,1018.8,-8.4,-999.0,yes,yes,no,300234010132070,BD2GI,AOML,POLAR_STAR,North
2012-04-17T21:00:00Z,1334696400,2012,21,0,108.875,108.875,72.4026,-127.546,1018.7,-7.6,-999.0,yes,yes,no,300234010132070,BD2GI,AOML,POLAR_STAR,North
2012-04-17T22:00:28Z,1334700029,2012,22,0,108.917,108.875,72.4026,-127.546,1018.4,-7.0,-999.0,yes,yes,no,300234010132070,BD2GI,AOML,POLAR_STAR,North
2012-04-17T22:59:31Z,1334703571,2012,23,0,108.958,108.875,72.4026,-127.546,1018.3,-6.7,-999.0,yes,yes,no,300234010132070,BD2GI,AOML,POLAR_STAR,North
2012-04-18T00:00:00Z,1334707200,2012,0,0,109.0,109.0,72.3998,-127.5398,1018.2,-6.3,-999.0,yes,yes,no,300234010132070,BD2GI,AOML,POLAR_STAR,North
2012-04-18T01:00:28Z,1334710829,2012,1,0,109.042,109.0,72.3998,-127.5398,1017.6,-6.5,-999.0,yes,yes,no,300234010132070,BD2GI,AOML,POLAR_STAR,North
2012-04-18T01:59:31Z,1334714371,2012,2,0,109.083,109.0,72.3998,-127.5398,1017.3,-6.8,-999.0,yes,yes,no,300234010132070,BD2GI,AOML,POLAR_STAR,North
2012-04-18T03:00:00Z,1334718000,2012,3,0,109.125,109.125,72.3956,-127.5358,1016.7,-8.2,-999.0,yes,yes,no,300234010132070,BD2GI,AOML,POLAR_STAR,North
2012-04-18T04:00:28Z,1334721629,2012,4,0,109.167,109.125,72.3956,-127.5358,1016.1,-10.4,-999.0,yes,yes,no,300234010132070,BD2GI,AOML,POLAR_STAR,North
2012-04-18T04:59:31Z,1334725171,2012,5,0,109.208,109.125,72.3956,-127.5358,1015.5,-13.2,-999.0,yes,yes,no,300234010132070,BD2GI,AOML,POLAR_STAR,North
2012-04-18T06:00:00Z,1334728800,2012,6,0,109.25,109.25,72.391,-127.5368,1016.0,-15.5,-999.0,yes,yes,no,300234010132070,BD2GI,AOML,POLAR_STAR,North
2012-04-18T07:00:28Z,1334732429,2012,7,0,109.292,109.25,72.391,-127.5368,1017.0,-17.0,-999.0,yes,yes,no,300234010132070,BD2GI,AOML,POLAR_STAR,North
2012-04-18T07:59:31Z,1334735971,2012,8,0,109.333,109.25,72.391,-127.5368,1017.4,-18.1,-999.0,yes,yes,no,300234010132070,BD2GI,AOML,POLAR_STAR,North
2012-04-18T09:00:00Z,1334739600,2012,9,0,109.375,109.375,72.3858,-127.5408,1017.7,-18.8,-999.0,yes,yes,no,300234010132070,BD2GI,AOML,POLAR_STAR,North
2012-04-18T10:00:28Z,1334743229,2012,10,0,109.417,109.375,72.3858,-127.5408,1018.0,-19.1,-999.0,yes,yes,no,300234010132070,BD2GI,AOML,POLAR_STAR,North
2012-04-18T10:59:31Z,1334746771,2012,11,0,109.458,109.375,72.3858,-127.5408,1018.1,-19.6,-999.0,yes,yes,no,300234010132070,BD2GI,AOML,POLAR_STAR,North
2012-04-18T12:00:00Z,1334750400,2012,12,0,109.5,109.5,72.3806,-127.5426,1018.2,-19.9,-999.0,yes,yes,no,300234010132070,BD2GI,AOML,POLAR_STAR,North
2012-04-18T13:00:28Z,1334754029,2012,13,0,109.542,109.5,72.3806,-127.5426,1018.7,-19.7,-999.0,yes,yes,no,300234010132070,BD2GI,AOML,POLAR_STAR,North
2012-04-18T13:59:31Z,1334757571,2012,14,0,109.583,109.5,72.3806,-127.5426,1020.0,-18.0,-999.0,yes,yes,no,300234010132070,BD2GI,AOML,POLAR_STAR,North
2012-04-18T15:00:00Z,1334761200,2012,15,0,109.625,109.625,72.3764,-127.5452,1020.0,-15.8,-999.0,yes,yes,no,300234010132070,BD2GI,AOML,POLAR_STAR,North